ProjectID,Date,Electric Generation,Electric Utility Import,Facility Electric Load
,YYYY-MM-DD,kW,kW,kW
409,2016-12-01,0.0,,0.0
409,2016-12-02,0.0,,0.0
409,2016-12-03,0.0,,0.0
409,2016-12-04,0.0,,0.0
409,2016-12-05,0.0,,0.0
409,2016-12-06,0.0,,0.0
409,2016-12-07,0.0,,0.0
409,2016-12-08,0.0,,0.0
409,2016-12-09,0.0,,0.0
409,2016-12-10,0.0,,0.0
409,2016-12-11,0.0,,0.0
409,2016-12-12,0.0,,0.0
409,2016-12-13,0.0,,0.0
409,2016-12-14,0.0,,0.0
409,2016-12-15,0.0,,0.0
409,2016-12-16,0.0,,0.0
409,2016-12-17,0.0,,0.0
409,2016-12-18,0.0,,0.0
409,2016-12-19,41.00358333333333,,41.00358333333333
409,2016-12-20,41.065041666666666,,41.065041666666666
409,2016-12-21,23.450625,,23.450625
409,2016-12-22,26.746,,26.746
409,2016-12-23,42.58370833333334,,42.58370833333334
409,2016-12-24,8.448125,,8.448125
409,2016-12-25,46.687083333333334,,46.687083333333334
409,2016-12-26,10.534291666666665,,10.534291666666665
409,2016-12-27,25.25408333333333,,25.25408333333333
409,2016-12-28,15.968458333333336,,15.968458333333336
409,2016-12-29,3.031916666666667,,3.031916666666667
409,2016-12-30,31.520875,,31.520875
409,2016-12-31,33.197,,33.197
409,2017-01-01,46.961375000000004,,46.961375000000004
409,2017-01-02,6.992291666666667,,6.992291666666667
409,2017-01-03,5.3125833333333325,,5.3125833333333325
409,2017-01-04,29.442041666666665,,29.442041666666665
409,2017-01-05,32.275,,32.275
409,2017-01-06,23.691083333333328,,23.691083333333328
409,2017-01-07,0.32337499999999997,,0.32337499999999997
409,2017-01-08,0.6549166666666667,,0.6549166666666667
409,2017-01-09,2.2505416666666664,,2.2505416666666664
409,2017-01-10,3.455458333333333,,3.455458333333333
409,2017-01-11,31.861875,,31.861875
409,2017-01-12,34.37695833333334,,34.37695833333334
409,2017-01-13,49.36350000000001,,49.36350000000001
409,2017-01-14,21.707375000000003,,21.707375000000003
409,2017-01-15,7.033583333333333,,7.033583333333333
409,2017-01-16,50.28241666666667,,50.28241666666667
409,2017-01-17,4.828041666666667,,4.828041666666667
409,2017-01-18,6.162,,6.162
409,2017-01-19,37.12645833333334,,37.12645833333334
409,2017-01-20,16.643833333333333,,16.643833333333333
409,2017-01-21,21.089000000000002,,21.089000000000002
409,2017-01-22,15.403583333333335,,15.403583333333335
409,2017-01-23,6.429291666666665,,6.429291666666665
409,2017-01-24,7.183041666666667,,7.183041666666667
409,2017-01-25,59.52445833333332,,59.52445833333332
409,2017-01-26,24.646666666666675,,24.646666666666675
409,2017-01-27,22.339249999999996,,22.339249999999996
409,2017-01-28,20.106833333333334,,20.106833333333334
409,2017-01-29,57.72724999999999,,57.72724999999999
409,2017-01-30,44.65591666666666,,44.65591666666666
409,2017-01-31,6.009541666666667,,6.009541666666667
409,2017-02-01,26.21733333333334,,26.21733333333334
409,2017-02-02,45.39825,,45.39825
409,2017-02-03,40.210375000000006,,40.210375000000006
409,2017-02-04,67.55725,,67.55725
409,2017-02-05,24.891458333333336,,24.891458333333336
409,2017-02-06,64.44475,,64.44475
409,2017-02-07,9.99575,,9.99575
409,2017-02-08,53.763708333333334,,53.763708333333334
409,2017-02-09,0.2660416666666667,,0.2660416666666667
409,2017-02-10,12.961458333333333,,12.961458333333333
409,2017-02-11,20.736750000000004,,20.736750000000004
409,2017-02-12,2.4686250000000003,,2.4686250000000003
409,2017-02-13,42.97058333333333,,42.97058333333333
409,2017-02-14,48.255374999999994,,48.255374999999994
409,2017-02-15,38.791125,,38.791125
409,2017-02-16,74.78233333333334,,74.78233333333334
409,2017-02-17,77.67041666666667,,77.67041666666667
409,2017-02-18,71.940875,,71.940875
409,2017-02-19,56.47795833333333,,56.47795833333333
409,2017-02-20,77.74095833333335,,77.74095833333335
409,2017-02-21,63.79808333333333,,63.79808333333333
409,2017-02-22,43.11604166666666,,43.11604166666666
409,2017-02-23,40.29304166666667,,40.29304166666667
409,2017-02-24,74.83891666666668,,74.83891666666668
409,2017-02-25,46.65483333333333,,46.65483333333333
409,2017-02-26,80.88141666666667,,80.88141666666667
409,2017-02-27,65.87991666666666,,65.87991666666666
409,2017-02-28,56.49120833333334,,56.49120833333334
409,2017-03-01,26.234250000000003,,26.234250000000003
409,2017-03-02,92.29433333333334,,92.29433333333334
409,2017-03-03,76.349625,,76.349625
409,2017-03-04,76.703125,,76.703125
409,2017-03-05,100.35858333333333,,100.35858333333333
409,2017-03-06,86.07166666666667,,86.07166666666667
409,2017-03-07,21.440125,,21.440125
409,2017-03-08,77.24429166666667,,77.24429166666667
409,2017-03-09,91.89824999999998,,91.89824999999998
409,2017-03-10,1.1421666666666666,,1.1421666666666666
409,2017-03-11,5.267333333333334,,5.267333333333334
409,2017-03-12,13.159625,,13.159625
409,2017-03-13,71.4195,,71.4195
409,2017-03-14,0.0,,0.0
409,2017-03-15,0.4282916666666667,,0.4282916666666667
409,2017-03-16,1.4033750000000003,,1.4033750000000003
409,2017-03-17,3.079875,,3.079875
409,2017-03-18,0.8937083333333334,,0.8937083333333334
409,2017-03-19,17.99475,,17.99475
409,2017-03-20,72.60333333333334,,72.60333333333334
409,2017-03-21,78.33708333333333,,78.33708333333333
409,2017-03-22,104.49233333333335,,104.49233333333335
409,2017-03-23,103.07925,,103.07925
409,2017-03-24,45.96591666666666,,45.96591666666666
409,2017-03-25,30.218208333333333,,30.218208333333333
409,2017-03-26,19.478375,,19.478375
409,2017-03-27,35.04779166666666,,35.04779166666666
409,2017-03-28,11.870833333333335,,11.870833333333335
409,2017-03-29,94.61216666666667,,94.61216666666667
409,2017-03-30,80.89883333333334,,80.89883333333334
409,2017-03-31,7.723458333333333,,7.723458333333333
409,2017-04-01,38.31245833333333,,38.31245833333333
409,2017-04-02,108.25016666666669,,108.25016666666669
409,2017-04-03,88.96558333333333,,88.96558333333333
409,2017-04-04,25.752625000000005,,160.21095833333334
409,2017-04-05,53.64704166666666,,287.10954166666664
409,2017-04-06,10.431791666666667,,414.4234583333332
409,2017-04-07,34.863625000000006,,439.4969583333334
409,2017-04-08,115.92699999999998,,520.7478333333333
409,2017-04-09,113.38299999999998,,515.8413333333333
409,2017-04-10,108.16395833333335,,364.3097916666667
409,2017-04-11,103.09062499999999,,267.6781249999999
409,2017-04-12,55.092458333333326,,66.92995833333333
409,2017-04-13,90.8782916666667,,90.88245833333336
409,2017-04-14,92.293875,,92.293875
409,2017-04-15,63.21516666666667,,63.21516666666667
409,2017-04-16,81.10883333333334,,81.10883333333334
409,2017-04-17,53.374208333333335,,53.374208333333335
409,2017-04-18,109.35041666666666,,109.35041666666666
409,2017-04-19,53.631250000000016,,53.631250000000016
409,2017-04-20,74.22204166666667,,74.22204166666667
409,2017-04-21,30.136125000000003,,30.136125000000003
409,2017-04-22,26.624458333333333,,26.624458333333333
409,2017-04-23,107.42658333333334,,107.42658333333334
409,2017-04-24,47.060333333333325,,47.064499999999995
409,2017-04-25,20.063000000000002,,20.063000000000002
409,2017-04-26,30.504875000000002,,125.17154166666667
409,2017-04-27,41.50791666666667,,444.89958333333334
409,2017-04-28,13.466375,,417.45387500000004
409,2017-04-29,11.9775,,388.96083333333337
409,2017-04-30,6.461249999999999,,406.0237500000002
409,2017-05-01,38.635999999999996,,438.1776666666666
409,2017-05-02,57.899875,,413.72904166666666
409,2017-05-03,23.05570833333334,,390.23904166666665
409,2017-05-04,43.69758333333334,,443.60175000000004
409,2017-05-05,5.368375,,405.2225416666667
409,2017-05-06,35.09908333333334,,434.55741666666665
409,2017-05-07,21.96741666666667,,421.8382500000001
409,2017-05-08,62.85762499999999,,462.73679166666665
409,2017-05-09,59.806375,,459.40220833333336
409,2017-05-10,70.72804166666667,,470.6655416666667
409,2017-05-11,60.687958333333334,,460.5337916666666
409,2017-05-12,54.04270833333334,,451.53437499999995
409,2017-05-13,10.267583333333333,,410.05925000000013
409,2017-05-14,69.22804166666667,,468.4530416666666
409,2017-05-15,27.060375000000004,,406.0728749999999
409,2017-05-16,5.277708333333333,,390.169375
409,2017-05-17,2.145375,,393.52870833333344
409,2017-05-18,12.558166666666667,,409.47066666666666
409,2017-05-19,26.754125,,423.4124583333333
409,2017-05-20,10.25141666666667,,408.66808333333336
409,2017-05-21,29.939083333333333,,428.3015833333333
409,2017-05-22,4.791583333333333,,403.03741666666656
409,2017-05-23,25.634333333333334,,408.24266666666676
409,2017-05-24,28.90558333333333,,377.52224999999993
409,2017-05-25,7.277166666666667,,346.4855
409,2017-05-26,29.282541666666663,,403.28254166666665
409,2017-05-27,25.56941666666667,,394.2360833333334
409,2017-05-28,33.519124999999995,,434.6607916666666
409,2017-05-29,9.901124999999999,,413.676125
409,2017-05-30,13.203041666666666,,416.86970833333334
409,2017-05-31,35.195166666666665,,408.2035000000001
409,2017-06-01,39.28954166666667,,411.8187083333334
409,2017-06-02,37.810625,,435.10645833333353
409,2017-06-03,33.98233333333334,,431.38649999999996
409,2017-06-04,18.991333333333333,,416.9746666666666
409,2017-06-05,24.389666666666667,,421.98549999999994
409,2017-06-06,20.13575,,417.81075
409,2017-06-07,59.169375,,456.6443750000001
409,2017-06-08,48.22858333333335,,437.9410833333334
409,2017-06-09,68.65816666666667,,448.804
409,2017-06-10,63.248749999999994,,460.2820833333333
409,2017-06-11,71.42995833333333,,467.67162499999995
409,2017-06-12,69.2065,,465.3565000000001
409,2017-06-13,67.43374999999999,,462.94625
409,2017-06-14,54.67950000000001,,451.2378333333334
409,2017-06-15,72.06191666666666,,469.7077499999999
409,2017-06-16,15.672291666666668,,413.23062500000003
409,2017-06-17,24.08475,,421.33891666666665
409,2017-06-18,62.483125,,458.9622916666666
409,2017-06-19,57.71845833333333,,445.92679166666665
409,2017-06-20,75.48462500000001,,471.8137916666667
409,2017-06-21,59.417833333333334,,455.74700000000007
409,2017-06-22,73.46554166666667,,469.89054166666665
409,2017-06-23,37.618375,,433.7142083333333
409,2017-06-24,65.65304166666668,,461.49887500000006
409,2017-06-25,66.44524999999999,,462.70358333333337
409,2017-06-26,74.46874999999999,,467.2354166666667
409,2017-06-27,59.78683333333334,,446.8285
409,2017-06-28,68.63991666666666,,468.23574999999994
409,2017-06-29,72.07204166666666,,471.4095416666666
409,2017-06-30,89.832875,,488.8287083333334
409,2017-07-01,68.71333333333332,,467.68
409,2017-07-02,93.85533333333332,,492.022
409,2017-07-03,83.25337499999999,,481.6450416666668
409,2017-07-04,75.045125,,473.71179166666667
409,2017-07-05,90.82879166666667,,489.6704583333332
409,2017-07-06,50.44995833333332,,449.46245833333336
409,2017-07-07,39.613625,,438.14279166666665
409,2017-07-08,72.52433333333333,,470.5076666666667
409,2017-07-09,83.10712500000001,,481.45712499999996
409,2017-07-10,79.354125,,477.8499583333334
409,2017-07-11,55.67691666666667,,453.99358333333333
409,2017-07-12,65.75675,,463.5275833333333
409,2017-07-13,54.466333333333345,,451.89966666666675
409,2017-07-14,15.058999999999997,,413.6298333333333
409,2017-07-15,70.51570833333334,,468.20320833333335
409,2017-07-16,98.84579166666667,,496.3457916666667
409,2017-07-17,83.72166666666666,,481.45500000000004
409,2017-07-18,116.36716666666665,,514.2088333333332
409,2017-07-19,107.38091666666666,,504.66841666666664
409,2017-07-20,97.02945833333332,,493.45862500000004
409,2017-07-21,104.93891666666671,,501.3847500000001
409,2017-07-22,93.71062499999998,,490.4272916666667
409,2017-07-23,65.000625,,462.1047916666667
409,2017-07-24,39.22858333333333,,436.89525000000003
409,2017-07-25,45.31095833333333,,442.9817916666667
409,2017-07-26,114.52970833333335,,495.49220833333345
409,2017-07-27,48.41208333333333,,446.27874999999995
409,2017-07-28,78.35408333333332,,475.5499166666667
409,2017-07-29,47.486333333333334,,445.22799999999995
409,2017-07-30,112.4100416666667,,510.17254166666675
409,2017-07-31,97.313625,,486.47195833333336
409,2017-08-01,101.01141666666665,,498.44891666666666
409,2017-08-02,56.88695833333333,,454.34529166666664
409,2017-08-03,96.08825,,493.38825
409,2017-08-04,93.34041666666667,,490.5570833333333
409,2017-08-05,68.62929166666667,,465.6542916666667
409,2017-08-06,69.97991666666667,,467.36324999999994
409,2017-08-07,9.63975,,361.24808333333334
409,2017-08-08,60.959083333333325,,358.35075000000006
409,2017-08-09,90.83354166666665,,483.19187500000004
409,2017-08-10,92.69983333333333,,490.1331666666667
409,2017-08-11,82.12225,,479.5305833333333
409,2017-08-12,40.143458333333335,,437.3684583333333
409,2017-08-13,95.66116666666666,,492.2945
409,2017-08-14,53.51016666666667,,450.54766666666666
409,2017-08-15,19.186541666666667,,416.24904166666664
409,2017-08-16,77.96954166666667,,474.5403749999999
409,2017-08-17,86.47429166666666,,483.26179166666657
409,2017-08-18,20.176125000000003,,416.5636250000001
409,2017-08-19,78.28462499999999,,461.11379166666666
409,2017-08-20,88.70512500000001,,456.15512500000006
409,2017-08-21,78.99666666666667,,425.3591666666667
409,2017-08-22,79.86020833333333,,427.28937499999995
409,2017-08-23,88.15375,,457.0704166666667
409,2017-08-24,91.90554166666665,,487.39720833333337
409,2017-08-25,67.53741666666666,,457.12074999999993
409,2017-08-26,85.05245833333332,,480.969125
409,2017-08-27,73.50670833333332,,469.3775416666667
409,2017-08-28,77.48370833333334,,473.4170416666666
409,2017-08-29,12.561833333333334,,408.67850000000004
409,2017-08-30,75.22866666666665,,429.62866666666656
409,2017-08-31,74.05479166666665,,460.57979166666667
409,2017-09-01,55.577416666666664,,408.20658333333336
409,2017-09-02,21.451875,,414.3602083333334
409,2017-09-03,18.588083333333334,,411.05058333333324
409,2017-09-04,41.594874999999995,,433.607375
409,2017-09-05,38.25691666666666,,429.80275000000006
409,2017-09-06,21.66970833333333,,413.7363750000001
409,2017-09-07,44.81716666666667,,436.93383333333327
409,2017-09-08,45.43883333333332,,437.83883333333324
409,2017-09-09,40.93241666666667,,398.91991666666655
409,2017-09-10,39.73704166666667,,431.60787500000004
409,2017-09-11,54.23433333333333,,446.1551666666666
409,2017-09-12,38.01133333333333,,429.5030000000001
409,2017-09-13,35.01979166666667,,426.41979166666675
409,2017-09-14,36.77245833333334,,427.9807916666667
409,2017-09-15,65.87116666666667,,456.8836666666667
409,2017-09-16,69.74549999999998,,460.758
409,2017-09-17,72.92049999999999,,463.8330000000001
409,2017-09-18,26.88416666666667,,417.66749999999996
409,2017-09-19,40.12970833333333,,430.86720833333334
409,2017-09-20,60.21533333333334,,450.7611666666666
409,2017-09-21,53.85720833333334,,444.486375
409,2017-09-22,89.08679166666667,,457.195125
409,2017-09-23,90.01212500000001,,479.25379166666676
409,2017-09-24,84.34425000000002,,473.56925
409,2017-09-25,79.26441666666668,,469.0269166666666
409,2017-09-26,64.19349999999999,,454.08099999999996
409,2017-09-27,59.63141666666667,,448.59808333333336
409,2017-09-28,87.08337499999999,,476.1792083333333
409,2017-09-29,64.93766666666666,,454.8293333333333
409,2017-09-30,45.14225,,435.2589166666666
409,2017-10-01,84.78337499999999,,447.42504166666663
409,2017-10-02,69.01025,,406.00191666666666
409,2017-10-03,60.817583333333324,,430.93008333333324
409,2017-10-04,63.774499999999996,,451.0578333333333
409,2017-10-05,51.53191666666668,,440.7985833333333
409,2017-10-06,54.73125000000001,,443.86875000000003
409,2017-10-07,51.61812499999999,,440.42645833333336
409,2017-10-08,14.486375,,403.0530416666666
409,2017-10-09,8.530916666666668,,397.34341666666666
409,2017-10-10,56.273875000000004,,444.92387499999995
409,2017-10-11,32.15724999999999,,421.0905833333333
409,2017-10-12,37.34262499999999,,426.63845833333335
409,2017-10-13,33.429625,,422.7379583333332
409,2017-10-14,28.465000000000003,,417.1691666666667
409,2017-10-15,23.920333333333332,,412.087
409,2017-10-16,27.087791666666664,,416.071125
409,2017-10-17,59.356875,,449.27354166666674
409,2017-10-18,55.01370833333334,,444.50537500000013
409,2017-10-19,55.68645833333333,,444.6656250000001
409,2017-10-20,53.61179166666667,,442.2909583333332
409,2017-10-21,50.53229166666666,,438.93229166666674
409,2017-10-22,51.52575000000001,,439.60075000000006
409,2017-10-23,37.35341666666666,,425.65341666666677
409,2017-10-24,16.984291666666667,,404.842625
409,2017-10-25,17.88775,,405.95441666666665
409,2017-10-26,13.028416666666665,,401.79925
409,2017-10-27,54.690666666666665,,443.7198333333334
409,2017-10-28,50.079583333333325,,438.2129166666666
409,2017-10-29,3.7988750000000002,,391.13637500000004
409,2017-10-30,43.723625,,431.81529166666667
409,2017-10-31,52.05345833333334,,441.15345833333333
409,2017-11-01,23.707333333333334,,413.04900000000004
409,2017-11-02,39.83466666666667,,428.1263333333334
409,2017-11-03,39.944583333333334,,428.08208333333334
409,2017-11-04,40.30745833333334,,429.05329166666667
409,2017-11-05,8.2565,,372.21483333333333
409,2017-11-06,9.447416666666667,,397.5265833333333
409,2017-11-07,15.870541666666666,,404.8288749999999
409,2017-11-08,26.780625,,416.17229166666664
409,2017-11-09,39.85008333333333,,429.33758333333327
409,2017-11-10,53.998375,,443.8525416666667
409,2017-11-11,61.14929166666667,,430.9534583333333
409,2017-11-12,42.96929166666667,,432.9026249999999
409,2017-11-13,14.46175,,404.30341666666664
409,2017-11-14,42.67645833333333,,432.11395833333336
409,2017-11-15,55.46837499999999,,444.91837499999986
409,2017-11-16,31.97370833333333,,421.0362083333333
409,2017-11-17,57.80641666666667,,446.9939166666667
409,2017-11-18,12.70145833333333,,401.37229166666674
409,2017-11-19,43.821916666666674,,431.4344166666666
409,2017-11-20,39.95308333333333,,428.9864166666666
409,2017-11-21,50.4865,,439.4573333333332
409,2017-11-22,22.384249999999998,,411.26341666666667
409,2017-11-23,54.54425,,443.63175
409,2017-11-24,51.111250000000005,,439.8279166666665
409,2017-11-25,49.36595833333334,,437.6367916666667
409,2017-11-26,41.245916666666666,,429.5834166666666
409,2017-11-27,45.23258333333334,,434.0784166666666
409,2017-11-28,45.39370833333333,,434.1687083333334
409,2017-11-29,43.390375,,408.57787500000006
409,2017-11-30,29.112125000000006,,391.3579583333334
409,2017-12-01,44.221958333333326,,432.51362500000005
409,2017-12-02,38.414291666666664,,426.59762500000005
409,2017-12-03,9.117333333333333,,397.1339999999999
409,2017-12-04,38.46041666666667,,426.74791666666664
409,2017-12-05,11.246708333333332,,399.0342083333334
409,2017-12-06,23.961125,,411.8527916666667
409,2017-12-07,42.75541666666667,,430.74291666666664
409,2017-12-08,18.301541666666665,,406.41404166666666
409,2017-12-09,0.9989583333333333,,388.965625
409,2017-12-10,0.3582916666666667,,388.1957916666667
409,2017-12-11,3.3272083333333335,,391.06054166666667
409,2017-12-12,12.83975,,399.7814166666666
409,2017-12-13,32.15558333333333,,418.8014166666666
409,2017-12-14,3.481499999999999,,390.2106666666667
409,2017-12-15,8.122791666666668,,394.931125
409,2017-12-16,2.4720833333333334,,389.28041666666667
409,2017-12-17,19.297541666666667,,406.39754166666677
409,2017-12-18,25.951125,,412.8552916666667
409,2017-12-19,29.598958333333332,,416.0531249999999
409,2017-12-20,24.08791666666667,,410.65458333333345
409,2017-12-21,39.71625,,425.64958333333334
409,2017-12-22,5.881500000000002,,392.68983333333347
409,2017-12-23,2.1999166666666667,,388.3957499999999
409,2017-12-24,21.765291666666666,,408.34862499999997
409,2017-12-25,38.19100000000001,,424.5660000000001
409,2017-12-26,35.170375,,421.65370833333327
409,2017-12-27,42.891875,,429.21270833333324
409,2017-12-28,44.65016666666667,,430.8793333333334
409,2017-12-29,35.007416666666664,,421.05325
409,2017-12-30,2.4881249999999997,,388.4089583333334
409,2017-12-31,8.797916666666667,,394.5645833333335
409,2018-01-01,26.20316666666666,,411.7614999999999
409,2018-01-02,39.58733333333333,,425.39983333333333
409,2018-01-03,37.08475,,422.9222499999999
409,2018-01-04,1.6300000000000001,,386.72999999999996
409,2018-01-05,39.42395833333334,,424.6697916666667
409,2018-01-06,43.88108333333333,,429.3852499999999
409,2018-01-07,42.39295833333334,,291.70545833333335
409,2018-01-08,21.675583333333332,,409.04641666666674
409,2018-01-09,46.07241666666667,,408.7765833333333
409,2018-01-10,46.098541666666655,,387.31937500000004
409,2018-01-11,19.442625000000003,,406.2634583333334
409,2018-01-12,4.197166666666667,,389.2263333333333
409,2018-01-13,47.39958333333333,,433.49541666666664
409,2018-01-14,51.907125,,438.51962500000013
409,2018-01-15,47.761791666666674,,434.27845833333333
409,2018-01-16,21.70820833333333,,408.14154166666657
409,2018-01-17,9.47775,,395.6819166666667
409,2018-01-18,49.85879166666666,,435.82129166666675
409,2018-01-19,32.00329166666666,,417.999125
409,2018-01-20,48.583875,,434.2630416666667
409,2018-01-21,42.188375,,427.7092083333333
409,2018-01-22,21.772875,,407.3062083333333
409,2018-01-23,13.052708333333333,,398.3235416666666
409,2018-01-24,44.890166666666666,,430.3568333333334
409,2018-01-25,57.25175000000001,,443.02674999999994
409,2018-01-26,53.842166666666664,,439.6505000000001
409,2018-01-27,44.35504166666667,,429.73004166666675
409,2018-01-28,8.941583333333334,,394.03325
409,2018-01-29,28.638333333333335,,413.8716666666666
409,2018-01-30,7.875541666666666,,392.858875
409,2018-01-31,59.35124999999999,,444.46375
409,2018-02-01,25.75570833333333,,410.63070833333325
409,2018-02-02,41.46954166666667,,426.1487083333334
409,2018-02-03,56.89358333333334,,441.8227499999999
409,2018-02-04,19.645166666666665,,404.3451666666667
409,2018-02-05,63.69708333333333,,448.15541666666667
409,2018-02-06,20.164916666666667,,404.8774166666666
409,2018-02-07,2.3666666666666667,,386.8583333333334
409,2018-02-08,64.08420833333332,,448.650875
409,2018-02-09,35.37379166666667,,420.0112916666667
409,2018-02-10,22.714833333333335,,406.7231666666667
409,2018-02-11,6.737833333333334,,390.4086666666667
409,2018-02-12,26.228666666666665,,410.4411666666665
409,2018-02-13,68.972875,,453.48120833333337
409,2018-02-14,48.398374999999994,,432.34420833333337
409,2018-02-15,24.554624999999998,,407.81295833333326
409,2018-02-16,17.573375000000002,,400.623375
409,2018-02-17,53.38641666666667,,437.33641666666665
409,2018-02-18,17.295541666666665,,400.8497083333333
409,2018-02-19,37.418375,,421.1100416666667
409,2018-02-20,46.129041666666666,,428.7873749999999
409,2018-02-21,53.51358333333334,,435.98025
409,2018-02-22,8.076541666666666,,391.2848750000001
409,2018-02-23,10.25,,393.19583333333327
409,2018-02-24,23.842249999999996,,406.50058333333334
409,2018-02-25,9.014375000000001,,391.526875
409,2018-02-26,27.913124999999997,,410.738125
409,2018-02-27,76.80320833333333,,459.74070833333326
409,2018-02-28,71.46575,,454.0449166666667
409,2018-03-01,34.73104166666668,,416.94770833333337
409,2018-03-02,6.233791666666668,,388.2212916666667
409,2018-03-03,70.99495833333334,,453.23245833333334
409,2018-03-04,37.64958333333333,,420.13708333333346
409,2018-03-05,48.412583333333345,,431.00008333333335
409,2018-03-06,79.59529166666665,,462.06195833333334
409,2018-03-07,5.26925,,387.3359166666666
409,2018-03-08,5.895458333333334,,387.9037916666666
409,2018-03-09,42.581125,,424.5477916666666
409,2018-03-10,50.66641666666667,,432.74141666666657
409,2018-03-11,82.61991666666667,,460.54491666666667
409,2018-03-12,38.974458333333324,,421.0411249999999
409,2018-03-13,16.79283333333333,,398.46366666666665
409,2018-03-14,71.667375,,453.117375
409,2018-03-15,81.64858333333335,,462.86525
409,2018-03-16,69.71666666666667,,451.26666666666677
409,2018-03-17,84.98458333333333,,466.35541666666666
409,2018-03-18,92.96895833333333,,474.4522916666666
409,2018-03-19,87.407,,468.782
409,2018-03-20,20.09775,,401.52275000000003
409,2018-03-21,0.101875,,381.18104166666666
409,2018-03-22,0.09383333333333332,,381.05633333333327
409,2018-03-23,4.413333333333333,,385.41749999999996